COSMOS 397 DEB, 5097

Orbit data source: Space-Track

COSMOS 397 DEB, 5097 is space debris in LEO originally from a launch on Thu, 25 Feb 1971 UTC launched from the Tyuratam Missile And Space Complex (TTMTR). Debris objects in space refer to the collection of defunct objects orbiting the Earth. Examples of debris include non-operational satellites, rocket bodies, and fragments generated from explosions, collisions, or faulty payload assembly.

Loading next visibility...
Identifier
5097, 1971-015W
Orbit
LEO
Country
Flag of CISCIS
Related business
Manufacturer
Unknown
Mission
Spacecraft
Bus & Motor
Unknown
Mass
Unknown
Launch date (UTC)
1971-02-25 (55 years ago)
Launch vehicle
Unknown
Launch site
Tyuratam Missile And Space Complex (TTMTR)
Object type
Payload
Rocket body
Debris
Shape & HBR
Unknown shape, 0.2 m
Radar Cross Section
Small (<0.1 m²)

Expand to show TLE details & history
Last TLE update: 19 hours ago

TLE from 19 hours ago
0 COSMOS 397 DEB
1 05097U 71015W   25349.94686426  .00000863  00000-0  32484-3 0  9994
2 05097  65.7361 276.7440 0766305 189.2670 169.3525 13.36246863612711
Epoch: 2025-12-15T22:43Z
TLE epoch observation values (Epoch: 2025-12-15T22:43:29.072Z)
Latitude
-0.00004°
Longitude
-148.96528°
Altitude
1,691.585 km
Speed
6.759 km/s
True Right ascension
18h 26m 58s
True Declination
0° 00' 00"
Sunlit
Object was in daylight at epoch
Visualization orbit readout
Latitude
Unknown
Longitude
Unknown
Altitude
Unknown
Speed
Unknown
Apparent Right ascension
Unknown
Apparent Declination
Unknown
Sunlit
N/A
Visualization observer readout
Local Sidereal Time
16:52:49
Azimuth
Unknown
Elevation
Unknown
Doppler factor
Unknown
Orbital elements
Apogee altitude
1,696.563 km
Perigee altitude
547.11 km
Semi-major axis
7,499.973 km
Eccentricity
0.07663
Inclination
65.7361°
RAAN
276.744°
Arg. of periapsis
189.267°
True anomaly
170.83479°
Mean anomaly
169.3525°
Eccentric anomaly
170.10686°
Mean motion
3.34159 °/min
Orbital period
107.73 mins
BSTAR
0.00032484
Loading maneuver chart data...
Computing Atmospheric mass density...

Documentation

Showing up to 5 results
|